Home > Weather > Northampton > Past weeks

Flag for United Kingdom Past Weather in Northampton, England, United Kingdom — Yesterday and Last 2 Weeks

Now
52 °F

Overcast.


Feels Like: 51 °F
Forecast: 52 / 66 °F
Wind: 3 mph from Southwest

Location: Wittering

Current Time: Jun 25, 2016 at 6:08:44 AM

Latest Report: Jun 25, 2016 at 4:50 AM


Visibility: N/A

Pressure: 29.98 "Hg

Humidity: 100%

Dew Point: 52 °F

Location of NorthamptonLocation

Past Weather in Northampton — Graph

°F

Northampton Temperature Yesterday

Maximum temperature yesterday: 68 °F (at 11:50 AM)
Minimum temperature yesterday: 52 °F (at 4:50 AM)
Average temperature yesterday: 60 °F

High & Low Weather Summary for the Past Weeks

 TemperatureHumidityPressure
High70 °F (Jun 10, 2:50 PM)100% (Jun 10, 10:50 PM)30.21 "Hg (Jun 10, 10:50 PM)
Low52 °F (Jun 17, 1:50 AM)56% (Jun 21, 12:50 PM)29.33 "Hg (Jun 14, 4:50 PM)
Average60 °F87%29.81 "Hg
* Reported Jun 10 5:50 AM — Jun 25 4:50 AM, Northampton, Weather by CustomWeather, © 2016

Note: Actual official high and low records may vary slightly from our data, if they occured in-between our weather recording intervals... More about our weather records

Advertising

Northampton Weather History for the Previous 24 Hours

Scroll right to see more
 ConditionsComfort  
Time TempWeatherWind HumidityBarometerVisibility
4:50 AM
Sat, Jun 25
52 °FOvercast.3 mph100%29.98 "HgN/A
3:50 AM52 °FPassing clouds.6 mph94%29.98 "HgN/A
2:50 AM52 °FPassing clouds.8 mph94%29.98 "HgN/A
1:50 AM54 °FPassing clouds.6 mph94%30.01 "HgN/A
12:50 AM55 °FPassing clouds.6 mph94%30.01 "HgN/A
11:50 PM
Fri, Jun 24
54 °FPassing clouds.3 mph100%30.01 "HgN/A
10:50 PM55 °FPassing clouds.2 mph94%30.01 "HgN/A
9:50 PM57 °FPartly sunny.3 mph94%30.01 "HgN/A
8:50 PM57 °FLots of rain. Scattered clouds.8 mph88%30.01 "Hg4 mi
7:50 PM59 °FBroken clouds.6 mph82%30.01 "HgN/A
6:50 PM57 °FPartly sunny.9 mph82%29.98 "HgN/A
5:50 PM66 °FPartly sunny.13 mph60%29.98 "HgN/A
4:50 PM64 °FOvercast.14 mph68%29.98 "HgN/A
3:50 PM61 °FScattered showers. Partly sunny.16 mph72%30.01 "HgN/A
2:50 PM66 °FPartly sunny.16 mph64%29.98 "HgN/A
1:50 PM66 °FScattered clouds.14 mph60%30.01 "HgN/A
12:50 PM66 °FPartly sunny.13 mph60%30.01 "HgN/A
11:50 AM68 °FScattered clouds.16 mph60%30.01 "HgN/A
10:50 AM66 °FScattered clouds.14 mph64%30.01 "HgN/A
9:50 AM64 °FPassing clouds.10 mph73%30.01 "HgN/A
8:50 AM61 °FScattered clouds.10 mph83%30.01 "HgN/A
7:50 AM59 °FScattered clouds.9 mph82%30.01 "HgN/A
6:50 AM55 °FSunny.9 mph88%30.01 "Hg10 mi
Weather by CustomWeather, © 2016

See weather overviewHow to use our weather pages